Location: ????
(32.1224°N, 34.8067°E)
Time: 05:28:56
(UTC+00:00)

Daily predictions for brighter satellites

Satellite Brightness Start Highest point End
(mag) Time Altitude Azimuth Time Altitude Azimuth Time Altitude Azimuth
IRS-1C 4.1 00:01:49 10° NNE 00:07:10 75° ESE 00:08:01 61° SSE
IRS-1D 3.5 00:03:16 10° N 00:08:31 64° WNW 00:08:41 64° W
Cosmos-2242 3.3 00:04:32 10° N 00:08:01 58° NNW 00:08:01 58° NNW
Cosmos 2219 3.3 00:06:38 10° NNW 00:11:37 53° W 00:11:37 53° W
Alouette 2 Rocket 4.1 00:07:23 10° NNW 00:11:33 51° NW 00:11:33 51° NW
SL-16 R/B 2.9 00:13:22 42° W 00:13:22 42° W 00:18:50 10° NNW
Cosmos 2184 Rocket 3.9 00:16:29 45° S 00:18:33 85° E 00:24:44 10° N
GP-B 4.1 00:18:39 10° NNW 00:21:53 34° NW 00:21:53 34° NW
Cosmos 2297 Rocket 2.2 00:19:04 10° NNW 00:24:33 54° WSW 00:24:53 53° WSW
Lacrosse 4 Rocket 3.2 00:24:11 10° N 00:28:01 32° ENE 00:31:45 10° SE
Cosmos 2278 3.8 00:27:57 49° WSW 00:29:03 58° WNW 00:34:39 10° NNE
STARLINK-1301 4.4 00:29:59 33° ESE 00:29:59 33° ESE 00:32:42 10° ENE
Cosmos 2082 3.8 00:24:24 10° NNW 00:30:03 77° ENE 00:35:39 10° SSE
STARLINK-42 4.0 00:31:36 42° E 00:31:36 42° E 00:34:02 10° NE
STARLINK-1307 4.5 00:32:35 31° ESE 00:32:35 31° ESE 00:35:26 10° ENE
Meteor 1-28 Rocket 4.1 00:32:33 24° SE 00:34:27 47° ENE 00:38:05 10° N
Cosmos 2322 Rocket 4.0 00:30:11 11° SSE 00:34:33 25° ESE 00:39:02 10° NE
STARLINK-1290 4.3 00:35:03 33° ESE 00:35:03 33° ESE 00:37:59 10° ENE
ARIANE 5 R/B 2.3 00:29:59 10° N 00:35:01 79° WNW 00:36:23 49° SSW
STARLINK-1316 4.3 00:36:36 32° ESE 00:36:36 32° ESE 00:38:58 10° ENE
H-2A R/B 3.5 00:32:10 10° SE 00:36:07 37° ENE 00:40:10 10° N
STARLINK-1257 4.2 00:37:29 33° ESE 00:37:29 33° ESE 00:39:53 10° ENE
STARLINK-1297 4.2 00:37:33 36° ESE 00:37:33 36° ESE 00:40:38 10° ENE
Cosmos 2181 Rocket 4.3 00:31:45 10° NNW 00:37:53 48° W 00:39:46 38° SW
STARLINK-1256 4.1 00:38:20 34° ESE 00:38:20 34° ESE 00:40:48 10° ENE
STARLINK-1311 4.0 00:39:05 37° E 00:39:05 37° E 00:41:20 10° ENE
STARLINK-1213 4.1 00:39:13 35° ESE 00:39:13 35° ESE 00:41:43 10° ENE
ADEOS II 2.6 00:34:30 10° N 00:39:25 42° WNW 00:40:26 38° W
STARLINK-1263 4.0 00:40:04 37° ESE 00:40:04 37° ESE 00:42:37 10° ENE
STARLINK-1259 3.9 00:40:58 38° ESE 00:40:58 38° ESE 00:43:33 10° ENE
STARLINK-1265 3.9 00:41:18 39° ESE 00:41:18 39° ESE 00:43:57 10° ENE
STARLINK-26 3.1 00:41:08 80° N 00:41:08 80° N 00:44:27 10° NE
Cosmos 1898 Rocket 3.8 00:36:24 10° NNW 00:41:27 45° WSW 00:42:02 43° WSW
STARLINK-1285 3.9 00:41:48 39° ESE 00:41:48 39° ESE 00:44:26 10° ENE
STARLINK-1268 3.7 00:43:33 42° ESE 00:43:33 42° ESE 00:46:14 10° ENE
STARLINK-1296 3.7 00:43:33 42° ESE 00:43:33 42° ESE 00:46:17 10° ENE
Meteor 2-17 Rocket 4.4 00:40:56 32° SSW 00:44:00 81° W 00:50:10 10° N
Cosmos 1892 4.0 00:42:00 20° SSE 00:44:05 36° E 00:47:37 10° NNE
STARLINK-1260 3.6 00:44:25 44° ESE 00:44:25 44° ESE 00:47:11 10° NE
Spot 4 Rocket 3.9 00:39:51 10° NNE 00:45:00 89° WNW 00:47:18 34° SSW
STARLINK-1318 3.6 00:45:17 45° ESE 00:45:17 45° ESE 00:48:06 10° NE
STARLINK-1245 4.4 00:41:07 10° NNW 00:45:10 52° NE 00:49:11 10° ESE
STARLINK-62 4.3 00:45:15 29° SE 00:45:17 29° SE 00:48:05 10° ENE
STARLINK-1275 3.5 00:46:08 47° ESE 00:46:08 47° ESE 00:48:59 10° NE
CZ-2D R/B 4.1 00:44:41 10° NW 00:46:43 12° WNW 00:47:17 12° WNW
STARLINK-1309 3.4 00:47:01 48° ESE 00:47:01 48° ESE 00:49:54 10° NE
STARLINK-34 4.2 00:47:04 30° SE 00:47:09 30° SE 00:50:00 10° ENE
STARLINK-1282 3.4 00:47:52 50° ESE 00:47:52 50° ESE 00:50:48 10° NE
STARLINK-55 3.0 00:47:54 69° NNW 00:47:54 69° NNW 00:50:58 10° NE
Cosmos 1937 Rocket 3.6 00:43:30 10° NNW 00:48:37 55° WSW 00:50:53 32° SSW
STARLINK-1313 3.0 00:48:57 63° ESE 00:48:57 63° ESE 00:51:56 10° NE
Resurs 1-4 Rocket 4.2 00:48:10 10° NW 00:49:45 11° WNW 00:50:27 11° WNW
STARLINK-1279 3.0 00:49:51 66° ESE 00:49:51 66° ESE 00:52:52 10° NE
STARLINK-1233 4.2 00:46:03 10° NW 00:50:08 58° NE 00:54:12 10° SE
STARLINK-1298 3.2 00:50:29 55° SE 00:50:29 55° SE 00:53:32 10° NE
Cosmos 2154 Rocket 3.9 00:47:05 26° S 00:50:52 83° W 00:57:10 10° N
STARLINK-1293 3.1 00:51:22 57° SE 00:51:24 57° SE 00:54:27 10° NE
SJ 16-02 3.1 00:48:15 10° NW 00:50:03 18° WNW 00:50:03 18° WNW
OAO 1 4.4 00:48:30 21° W 00:52:10 69° SSW 00:57:38 10° ESE
STARLINK-1317 3.2 00:51:59 60° S 00:52:25 68° SE 00:55:53 10° NE
STARLINK-1255 3.0 00:53:03 59° SE 00:53:10 60° SE 00:56:13 10° NE
Cosmos 1697 Rocket 4.1 00:51:50 20° W 00:53:23 22° WNW 00:57:44 10° N
STARLINK-1204 4.0 00:51:01 10° NW 00:55:08 66° NE 00:59:14 10° SE
STARLINK-28 3.4 00:57:45 44° WNW 00:58:02 45° NW 01:01:08 10° NNE
STARLINK-1238 3.8 00:55:59 10° NW 01:00:07 74° NE 01:04:15 10° SE
Cosmos 2227 Rocket 3.0 00:55:31 10° NW 01:00:19 29° WSW 01:00:57 28° WSW
IRIDIUM 104 4.2 00:57:29 23° S 01:00:45 79° W 01:06:00 10° N
IDEFIX/ARIANE 42P 2.5 00:56:15 10° NNE 01:01:32 90° NW 01:05:07 21° SSW
SL-16 R/B 2.7 00:58:18 17° S 01:02:32 58° ESE 01:08:05 10° NNE
STARLINK-1291 2.9 01:02:44 53° SW 01:03:26 85° SE 01:06:46 10° NE
STARLINK-41 3.1 01:03:22 50° W 01:03:50 57° NW 01:06:56 10° NE
STARLINK-1201 3.6 01:00:57 10° NW 01:05:06 83° NE 01:09:14 10° SE
STARLINK-1264 2.9 01:04:26 51° SW 01:05:11 89° SE 01:08:30 10° NE
STARLINK-1267 2.9 01:06:06 49° SW 01:06:54 87° NW 01:10:13 10° NE
SL-08 R/B 3.7 01:05:21 29° SSW 01:07:09 42° W 01:11:35 10° NNW
Cosmos 1842 Rocket 3.5 01:03:26 10° N 01:07:55 75° W 01:11:31 15° S
STARLINK-1272 2.9 01:07:43 46° SW 01:08:35 83° NW 01:11:55 10° NE
Cosmos 1869 3.3 01:05:00 10° N 01:08:52 75° E 01:12:42 10° S
IRIDIUM 114 4.3 01:06:37 22° SSW 01:09:55 63° W 01:15:06 10° N
STARLINK-1206 3.5 01:05:55 10° NW 01:10:04 88° SW 01:14:12 10° SE
STARLINK-1207 2.9 01:09:22 44° SW 01:10:18 79° NW 01:13:37 10° NE
Cosmos 2285 Rocket 4.3 01:04:57 10° NNW 01:10:56 44° W 01:16:27 12° S
Cosmos 1400 Rocket 3.6 01:07:41 10° NNW 01:11:25 33° W 01:12:21 30° WSW
STARLINK-1266 3.0 01:11:04 41° WSW 01:12:05 75° NW 01:15:24 10° NE
CZ-4C R/B 4.1 01:10:42 10° WNW 01:13:15 14° NW 01:16:00 10° N
STARLINK-1284 3.0 01:12:47 39° WSW 01:13:52 71° NW 01:17:11 10° NE
STARLINK-80 3.5 01:12:44 32° WSW 01:14:16 62° NW 01:18:02 10° NE
STARLINK-1205 3.5 01:10:54 10° NW 01:15:01 78° SW 01:19:09 10° SE
Skynet4D Del rocket 3.9 01:12:00 25° WSW 01:15:02 49° S 01:20:13 10° ESE
STARLINK-33 4.0 01:14:31 27° W 01:15:30 34° NW 01:18:28 10° NNE
STARLINK-1258 3.1 01:14:26 36° WSW 01:15:36 67° NW 01:18:54 10° NE
COBE Rocket 4.1 01:12:28 19° SSW 01:15:46 48° W 01:20:37 10° NNW
STARLINK-1292 3.1 01:16:08 34° WSW 01:17:20 63° NW 01:20:38 10° NE
USA 234 3.3 01:10:49 10° NE 01:17:21 80° NW 01:22:15 19° SW
Landsat 5 3.6 01:13:13 10° SSE 01:17:40 90° SW 01:22:13 10° NNW
Cosmos 1408 3.1 01:15:16 12° S 01:18:36 61° E 01:22:15 10° NNE
STARLINK-1274 3.2 01:17:55 32° WSW 01:19:12 60° NW 01:22:31 10° NE
STARLINK-1218 3.5 01:15:52 10° NW 01:19:59 69° SW 01:24:05 10° SE
Cosmos 1076 Rocket 3.5 01:17:18 20° SSW 01:20:12 67° W 01:24:34 10° N
STARLINK-1289 3.3 01:19:33 31° WSW 01:20:53 57° NW 01:24:10 10° NE
Uosat 12 SS-18 rocket 4.3 01:16:53 10° NNW 01:21:16 79° ENE 01:26:11 10° SSE
STARLINK-1303 3.3 01:21:22 29° WSW 01:22:47 54° NW 01:26:05 10° NE
STARLINK-1283 3.9 01:21:02 25° WSW 01:22:53 46° NW 01:26:31 10° NNE
STARLINK-66 4.4 01:22:48 20° W 01:24:09 27° NW 01:26:56 10° NNE
STARLINK-1312 3.4 01:23:08 27° WSW 01:24:39 51° NW 01:27:56 10° NNE
STARLINK-1254 3.5 01:20:52 10° NW 01:24:57 61° SW 01:29:01 10° SSE
Cosmos 1241 Rocket 4.4 01:21:21 18° SSW 01:26:04 76° WNW 01:32:16 10° NNE
CZ-2C R/B 3.3 01:23:23 10° N 01:26:51 38° WNW 01:28:48 21° SW
SL-24 DEB 4.4 01:24:44 10° N 01:29:13 52° W 01:33:05 13° SSW
STARLINK-1231 3.7 01:25:53 10° NW 01:29:55 54° SW 01:33:57 10° SSE
NOSS 2-1 (C) 3.2 01:29:42 22° SW 01:31:44 54° WNW 01:35:04 10° NNE
Nadezhda 3 Rocket 4.2 01:26:18 10° NNW 01:32:24 55° W 01:38:32 10° SSW
Cosmos 372 Rocket 4.1 01:27:49 10° NNW 01:32:45 49° WSW 01:37:42 10° S
Cosmos 1315 Rocket 2.8 01:30:11 10° NNW 01:34:01 55° W 01:37:51 10° S
Okean 3 Rocket 4.4 01:30:24 10° S 01:34:45 52° E 01:39:10 10° NNE
STARLINK-1232 3.8 01:30:54 10° NW 01:34:53 47° SW 01:38:51 10° SSE
NOSS 2-1 (D) 3.4 01:34:05 20° SW 01:36:13 46° WNW 01:39:30 10° NNE
Cosmos 2366 rocket 4.3 01:30:20 10° S 01:36:27 71° E 01:42:39 10° N
ERS-2 3.5 01:36:54 18° WSW 01:38:01 21° W 01:40:48 10° NW
Cosmos 2360 Rocket 3.1 01:33:34 10° S 01:38:54 48° ESE 01:44:17 10° NNE
STARLINK-1208 3.9 01:35:56 10° WNW 01:39:51 42° SW 01:43:45 10° SSE
Cosmos 2341 Rocket 4.1 01:33:39 10° SSW 01:39:55 60° W 01:46:13 10° N
STARLINK-58 3.5 01:41:38 17° WSW 01:43:47 44° NW 01:46:50 10° NNE
MSX 4.0 01:38:11 10° N 01:43:47 55° WNW 01:49:20 10° SSW
STARLINK-1277 4.4 01:40:46 11° SSW 01:44:35 45° SE 01:48:33 10° NE
STARLINK-1271 4.1 01:40:58 10° WNW 01:44:47 37° SW 01:48:36 10° SSE
STARLINK-22 4.5 01:42:53 13° W 01:45:05 25° NW 01:47:49 10° NNE
CZ-4C R/B 4.1 01:43:23 12° SSW 01:46:06 27° W 01:49:13 10° NW
Cosmos 1825 2.1 01:42:46 10° S 01:46:31 84° W 01:50:17 10° N
Cosmos 1980 Rocket 4.1 01:43:52 10° W 01:46:54 15° WNW 01:49:57 10° NNW
Cosmos 2221 3.5 01:44:34 10° NNW 01:48:18 28° W 01:52:02 10° SSW
PAYLOAD A 3.8 01:44:35 10° N 01:49:16 77° WNW 01:54:02 10° SSW
STARLINK-1276 4.2 01:45:34 10° SSW 01:49:34 51° SE 01:53:35 10° NE
STARLINK-1154 4.2 01:46:01 10° WNW 01:49:45 33° SW 01:53:28 10° SSE
STARLINK-1278 3.9 01:46:43 11° SSW 01:50:43 69° SE 01:54:56 10° NE
BREEZE M DEB (TANK) 4.3 01:47:53 10° WNW 01:52:01 70° SW 02:08:06 10° SE
PSLV R/B 3.7 01:48:24 10° N 01:52:30 52° WNW 01:56:33 10° SSW
STARLINK-1280 3.8 01:48:31 11° SW 01:52:34 72° SE 01:56:48 10° NE
Cosmos 2151 2.9 01:48:31 10° SSW 01:52:43 71° W 01:56:59 10° N
STARLINK-1305 4.0 01:50:28 10° SSW 01:54:32 58° SE 01:58:36 10° NE
STARLINK-1197 4.4 01:51:04 10° WNW 01:54:41 29° SW 01:58:17 10° S
STARLINK-48 3.8 01:53:57 12° WSW 01:57:30 54° NW 02:01:19 10° NE
Cosmos 773 Rocket 4.4 01:52:22 10° S 01:57:30 68° ESE 02:02:43 10° NNE
ATLAS CENTAUR R/B 4.3 01:52:57 10° WNW 01:58:05 33° SW 02:09:37 10° S
Cosmos 2058 4.4 01:55:21 11° WSW 01:58:16 20° WNW 02:01:23 10° NNW
STARLINK-1262 3.9 01:55:24 10° SSW 01:59:29 66° SE 02:03:36 10° NE
Cosmos 2219 Rocket 4.4 01:59:11 10° SSE 02:03:34 24° ESE 02:07:56 10° NE
STARLINK-1300 3.8 02:00:20 10° SW 02:04:27 75° SE 02:08:34 10° NE
Cosmos 1766 Rocket 3.5 02:01:25 10° S 02:05:48 77° W 02:10:09 10° N
Lacrosse 4 Rocket 3.0 02:03:46 10° WNW 02:06:22 16° WSW 02:08:56 10° SW
STARLINK-1269 4.5 02:03:01 10° NW 02:07:06 56° NE 02:11:09 10° ESE
Shenzhou-11 Module 1.7 02:04:43 10° WSW 02:07:08 58° NNW 02:09:34 10° NE
STARLINK-1295 3.7 02:05:18 10° SW 02:09:25 84° SE 02:13:34 10° NE
